Tracking 26544 objects as of 9-Dec-2022
HD Live streaming from Space Station
objects crossing your sky now

STARLINK-4465

Track STARLINK-4465 now!
10-day predictions
STARLINK-4465 is classified as:


NORAD ID: 53496
Int'l Code: 2022-099AH
Perigee: 568.0 km
Apogee: 572.2 km
Inclination: 97.7 °
Period: 95.9 minutes
Semi major axis: 6941 km
RCS: Unknown
Launch date: August 12, 2022
Source: United States (US)
Launch site: AIR FORCE WESTERN TEST RANGE (AFWTR)
aabbcc
Your satellite tracking list
Your tracking list is empty




NASA's NSSDC Master Catalog

Two Line Element Set (TLE):
1 53496U 22099AH  22342.60633543  .00003712  00000-0  29339-3 0  9994
2 53496  97.6553 101.4240 0003058  10.3521 349.7766 15.01267767 17882
Source of the keplerian elements: AFSPC